sat.trackr.live / text

‹ back to catalog

STARLINK-33867

NORAD 63795 · 2025-091W

PAYLOAD ACTIVE UNKNOWN

§ Identity

Operator
Country
US
Launch date
2025-05-02
Launch site
AFETR
Launch vehicle
Mass (kg)
RCS (m²)

Purposes: comms

External: N2YO · Heavens-Above · Gunter

§ Orbital elements

Epoch: 2026-05-24T22:51:48.041568Z

Period
94.27 min
Inclination
43.0018°
Eccentricity
0.0001694
Mean motion
15.27598121 rev/d
Perigee alt
481.8 km
Apogee alt
484.2 km
Semi-major
6,861.1 km
B*
1.0429e-3
RAAN
342.0044°
Arg perigee
261.5106°
Mean anomaly
98.5554°
Rev number
6,056

§ Raw data

STARLINK-338671 63795U 25091W   26144.95263937  .00028563  00000+0  10429-2 0  99992 63795  43.0018 342.0044 0001694 261.5106  98.5554 15.27598121 60560

JSON: /api/v1/satellites/63795 · /tle

For live sub-satellite position, see the globe view (requires WebGL).

§ Visibility from observer

Set your observer location to see the next 7 days of passes ≥ 10°. The values pass through the URL so the page stays shareable.

No JS? Fill the form by hand. The geolocation button needs JavaScript.